Stations météo

réclame
Mon MeteoGroup
Grenoble/St.Geoirs, France (7486): Température de l'air & dewpoint: 05.12.2017 23:00:00 - 11.12.2017 23:00:00 (CET)Grenoble/St.Geoirs, France (7486): Température de l'air 5cm: 05.12.2017 23:00:00 - 11.12.2017 23:00:00 (CET)Grenoble/St.Geoirs, France (7486): Température de l'air -20cm & Température de l'air -100cm: 05.12.2017 23:00:00 - 11.12.2017 23:00:00 (CET)Grenoble/St.Geoirs, France (7486): Vitesse du vent & gusts: 05.12.2017 23:00:00 - 11.12.2017 23:00:00 (CET)Grenoble/St.Geoirs, France (7486): Direction du vent: 05.12.2017 23:00:00 - 11.12.2017 23:00:00 (CET)Grenoble/St.Geoirs, France (7486): reduced air pressure: 05.12.2017 23:00:00 - 11.12.2017 23:00:00 (CET)Grenoble/St.Geoirs, France (7486): visibility: 05.12.2017 23:00:00 - 11.12.2017 23:00:00 (CET)Grenoble/St.Geoirs, France (7486): Ensoleillement: 05.12.2017 23:00:00 - 11.12.2017 23:00:00 (CET)Grenoble/St.Geoirs, France (7486): Quantités de précipitations: 05.12.2017 23:00:00 - 11.12.2017 23:00:00 (CET)
Date & Time tt [°C] td [°C] tt 5cm [°C] tt -20cm [°C] tt -100cm [°C] ff [km/h] ff [knt] fx [km/h] fx [knt] dd ppp [hPa] vv [km] sd [min] rr [mm]
11.12.2017 23:00:00 6,8 2,7 6,1 5,7 8,0 19 10 34 18 S 997,9 60 0 0,0
11.12.2017 22:00:00 6,8 2,7 5,5 5,7 8,1 17 9 26 14 S 996,5 60 0 0,0
11.12.2017 21:00:00 5,8 3,0 4,8 5,7 8,1 5 3 16 9 SSE 995,6 10 0 0,0
11.12.2017 20:00:00 6,1 3,1 5,0 5,6 8,1 4 2 50 27 - 994,1 10 0 0,0
11.12.2017 19:00:00 5,6 3,4 5,0 5,6 8,1 31 17 46 25 SSE 992,1 10 0 0,2
11.12.2017 18:00:00 6,0 4,0 5,1 5,5 8,1 14 8 31 17 S 991,6 12 0 1,6
11.12.2017 17:00:00 6,2 4,0 5,4 5,4 8,1 13 7 28 15 S 990,5 10 0 1,8
11.12.2017 16:00:00 6,9 5,0 6,2 5,3 8,1 11 6 23 12 S 988,9 9 0 1,8
11.12.2017 15:00:00 7,4 6,3 7,2 5,2 8,1 13 7 19 10 WSW 987,1 9 0 3,2
11.12.2017 14:00:00 7,9 7,0 7,7 5,0 8,1 15 8 37 20 W 986,0 2,6 0 5,7
11.12.2017 13:00:00 11,2 9,3 10,4 4,9 8,1 20 11 49 26 SSW 984,0 7 0 3,4
11.12.2017 12:00:00 11,4 9,5 10,6 4,9 8,1 25 13 53 29 SSW 983,9 4,2 0 2,6
11.12.2017 11:00:00 11,6 9,2 10,4 4,8 8,1 18 10 39 21 SSW 983,9 10 0 1,2
11.12.2017 10:00:00 12,1 8,2 10,4 4,7 8,1 28 15 72 39 SSW 983,1 10 0 0,6
11.12.2017 09:00:00 13,0 7,0 10,6 4,6 8,2 37 20 63 34 S 981,3 51 0 0,0
11.12.2017 08:00:00 12,4 6,9 10,1 4,5 8,2 36 19 59 32 S 981,8 53 0 0,2
11.12.2017 07:00:00 12,4 7,1 9,7 4,5 8,2 28 15 55 30 SSW 983,6 10 0 0,8
11.12.2017 06:00:00 12,2 6,9 9,9 4,4 8,2 32 17 66 36 S 984,2 38 0 0,2
11.12.2017 05:00:00 12,0 6,9 9,4 4,4 8,2 34 18 73 39 S 984,5 10 0 0,0
11.12.2017 04:00:00 11,7 7,0 4,8 4,4 8,2 24 13 48 26 SSW 986,4 10 0 0,0
11.12.2017 03:00:00 5,4 5,0 3,3 4,3 8,2 5 3 17 9 WNW 988,9 15 0 0,0
11.12.2017 02:00:00 4,6 4,2 3,2 4,3 8,2 7 4 22 12 NNW 989,6 0,5 0 0,0
11.12.2017 01:00:00 4,3 3,6 4,1 4,2 8,2 15 8 22 12 E 990,9 4,6 0 0,0
11.12.2017 00:00:00 5,6 4,9 3,3 4,2 8,2 9 5 18 10 WNW 993,7 6 0 0,0
10.12.2017 23:00:00 5,5 3,8 4,4 4,1 8,2 12 6 27 15 S 992,9 2,3 0 0,0
10.12.2017 22:00:00 6,3 4,8 5,5 4,0 8,2 11 6 19 11 NE 995,0 8 0 0,2
10.12.2017 21:00:00 6,6 4,8 5,7 4,0 8,3 13 7 27 15 NNE 996,1 9 0 0,0
10.12.2017 20:00:00 7,4 5,2 6,5 4,0 8,3 21 11 56 30 S 996,5 10 0 0,0
10.12.2017 19:00:00 6,7 4,9 6,2 3,9 8,3 28 15 52 28 S 997,1 10 0 0,0
10.12.2017 18:00:00 6,8 4,8 5,8 3,9 8,3 29 16 53 28 S 997,6 46 0 0,0
10.12.2017 17:00:00 6,2 4,4 2,6 3,9 8,3 21 11 37 20 S 998,4 41 0 0,0
10.12.2017 16:00:00 3,9 1,9 3,4 3,9 8,3 8 4 18 10 ESE 999,6 37 0 0,0
10.12.2017 15:00:00 3,8 2,0 3,3 3,9 8,3 13 7 30 16 WNW 1000,1 35 0 0,0
10.12.2017 14:00:00 3,2 1,7 2,5 3,9 8,3 15 8 29 16 W 1001,2 60 0 0,0
10.12.2017 13:00:00 2,7 1,2 1,9 4,0 8,4 18 10 31 17 W 1002,1 10 0 0,0
10.12.2017 12:00:00 1,9 0,4 1,3 4,0 8,3 11 6 30 16 WSW 1004,4 29 0 1,0
10.12.2017 11:00:00 1,5 0,0 1,1 4,0 8,3 16 8 31 17 SW 1005,6 11 0 3,0
10.12.2017 10:00:00 2,0 0,1 1,2 4,1 8,3 12 6 29 15 SSW 1006,2 5 0 3,8
10.12.2017 09:00:00 1,9 -0,2 0,0 4,1 8,4 8 4 33 18 - 1007,6 10 0 2,2
10.12.2017 08:00:00 1,3 -2,5 -0,1 4,2 8,4 8 4 22 12 SW 1008,5 10 0 0,4
10.12.2017 07:00:00 0,3 -4,2 -0,4 4,2 8,4 13 7 22 12 WSW 1009,5 57 0 0,2
10.12.2017 06:00:00 0,2 -5,4 -0,9 4,3 8,4 9 5 27 14 WSW 1010,6 60 0 0,0
10.12.2017 05:00:00 -0,6 -5,8 -1,5 4,3 8,4 4 2 18 10 ENE 1012,3 60 0 0,0
10.12.2017 04:00:00 -1,3 -5,5 -2,1 4,4 8,4 13 7 19 10 E 1014,1 10 0 0,0
10.12.2017 03:00:00 -1,9 -5,2 -2,1 4,4 8,4 14 8 21 11 E 1016,1 54 0 0,0
10.12.2017 02:00:00 -1,8 -5,0 -2,5 4,5 8,4 13 7 21 11 E 1016,8 10 0 0,0
10.12.2017 01:00:00 -2,3 -4,6 -2,9 4,5 8,4 11 6 18 10 E 1018,6 10 0 0,0
10.12.2017 00:00:00 -2,5 -4,7 -3,4 4,6 8,4 11 6 21 11 E 1019,6 10 0 0,0
09.12.2017 23:00:00 -3,0 -4,6 -4,9 4,6 8,4 14 8 18 10 E 1020,3 20 0 0,0
09.12.2017 22:00:00 -3,3 -5,6 -4,8 4,6 8,4 14 8 21 11 E 1021,0 31 0 0,0
09.12.2017 21:00:00 -4,1 -5,8 -7,7 4,7 8,4 11 6 15 8 E 1021,5 10 0 0,0
09.12.2017 20:00:00 -4,6 -6,3 -7,5 4,7 8,4 8 4 11 6 E 1022,3 10 0 0,0
09.12.2017 19:00:00 -3,7 -4,7 -7,2 4,7 8,4 6 4 11 6 E 1022,5 27 0 0,0
09.12.2017 18:00:00 -1,6 -3,8 -5,6 4,7 8,4 4 2 9 5 NE 1022,7 10 0 0,0
09.12.2017 17:00:00 -0,9 -3,8 -4,5 4,6 8,4 4 2 13 7 E 1022,6 54 0 0,0
09.12.2017 16:00:00 0,3 -3,6 -0,2 4,6 8,4 12 6 21 11 E 1022,8 47 5 0,0
09.12.2017 15:00:00 1,7 -3,8 2,1 4,6 8,4 10 5 23 12 ENE 1023,2 55 25 0,0
09.12.2017 14:00:00 2,0 -2,3 2,6 4,6 8,4 14 7 18 10 E 1023,7 49 10 0,0
09.12.2017 13:00:00 1,9 -2,8 2,9 4,6 8,4 12 6 24 13 N 1024,0 55 24 0,0
09.12.2017 12:00:00 1,6 -2,4 3,3 4,6 8,4 13 7 18 10 NNW 1024,6 56 20 0,0
09.12.2017 11:00:00 1,3 -2,6 1,9 4,6 8,4 6 3 15 8 NW 1024,7 20 56 0,0
09.12.2017 10:00:00 0,5 -2,6 -0,6 4,6 8,4 8 4 21 11 NNW 1024,4 44 33 0,0
09.12.2017 09:00:00 -0,3 -2,8 -1,3 4,7 8,4 11 6 18 10 N 1024,0 53 6 0,0
09.12.2017 08:00:00 0,1 -2,6 -0,5 4,7 8,4 7 4 20 11 N 1023,3 48 0 0,0
09.12.2017 07:00:00 0,0 -2,4 -1,2 4,8 8,4 12 6 30 16 N 1023,1 53 0 0,0
09.12.2017 06:00:00 -0,1 -2,5 -1,1 4,8 8,4 11 6 26 14 NW 1022,6 10 0 0,0
09.12.2017 05:00:00 -0,4 -2,1 -1,3 4,9 8,4 0 0 14 8 N 1022,3 10 0 0,0
09.12.2017 04:00:00 0,0 -2,1 -1,9 4,9 8,4 2 1 12 6 W 1022,4 53 0 0,0
09.12.2017 03:00:00 -0,1 -2,0 -1,3 4,9 8,4 0 0 13 7 N 1022,7 10 0 0,0
09.12.2017 02:00:00 -0,4 -2,5 -1,8 5,0 8,4 8 4 23 12 SW 1022,5 60 0 0,0
09.12.2017 01:00:00 0,7 -2,0 -1,4 5,0 8,4 16 9 40 22 NW 1022,2 19 0 0,0
09.12.2017 00:00:00 0,3 -1,9 -2,1 5,1 8,5 0 0 13 7 N 1022,7 10 0 0,0
08.12.2017 23:00:00 0,3 -1,5 -2,8 5,1 8,4 4 2 13 7 SSW 1022,6 51 0 0,0
08.12.2017 22:00:00 0,6 -1,0 -0,3 5,1 8,4 7 4 48 26 WNW 1023,0 60 0 0,0
08.12.2017 21:00:00 0,8 -0,2 -1,3 5,1 8,4 4 2 9 5 - 1022,8 10 0 0,0
08.12.2017 20:00:00 0,7 -1,1 -0,9 5,1 8,5 6 3 16 9 SW 1022,5 39 0 0,0
08.12.2017 19:00:00 1,7 -0,6 -2,3 5,1 8,5 13 7 43 23 NNW 1022,6 10 0 0,2
08.12.2017 18:00:00 1,4 -1,0 -3,1 5,0 8,4 2 1 16 9 ESE 1022,0 50 0 0,0
08.12.2017 17:00:00 3,4 0,4 2,2 5,0 8,5 11 6 29 16 S 1021,5 60 0 0,0
08.12.2017 16:00:00 4,4 0,9 4,1 4,9 8,5 22 12 32 18 N 1021,5 38 15 0,0
08.12.2017 15:00:00 5,1 2,6 5,2 4,9 8,5 6 3 13 7 E 1021,2 54 0 0,0
08.12.2017 14:00:00 5,6 2,4 6,2 4,8 8,5 6 4 15 8 ESE 1021,1 57 0 0,0
08.12.2017 13:00:00 5,6 3,3 4,9 4,8 8,4 11 6 16 8 SE 1021,0 43 0 0,0
08.12.2017 12:00:00 4,9 2,1 4,2 4,8 8,5 5 3 28 15 - 1022,1 10 0 0,2
08.12.2017 11:00:00 5,4 4,2 5,1 4,8 8,5 12 6 19 11 NW 1021,7 3,2 0 0,8
08.12.2017 10:00:00 5,4 4,2 5,0 4,7 8,5 8 4 18 10 NW 1020,9 3,6 0 0,2
08.12.2017 09:00:00 5,7 3,9 4,9 4,7 8,5 4 2 26 14 WNW 1020,5 7 0 0,8
08.12.2017 08:00:00 5,9 3,6 4,6 4,7 8,5 10 5 19 10 E 1019,9 24 0 0,0
08.12.2017 07:00:00 5,5 3,0 4,5 4,6 8,5 4 2 9 5 NE 1020,3 19 0 0,2
08.12.2017 06:00:00 5,4 3,2 4,5 4,6 8,5 6 3 13 7 NNW 1020,5 7 0 0,6
08.12.2017 05:00:00 5,6 3,3 4,6 4,6 8,5 5 3 17 9 W 1020,6 11 0 1,2
08.12.2017 04:00:00 5,7 3,4 4,7 4,5 8,5 4 2 21 11 W 1021,0 19 0 1,6
08.12.2017 03:00:00 6,1 3,3 4,8 4,5 8,6 4 2 29 16 - 1021,2 8 0 2,2
08.12.2017 02:00:00 6,2 3,4 5,0 4,5 8,6 6 3 22 12 S 1022,2 9 0 2,0
08.12.2017 01:00:00 6,6 4,1 5,5 4,4 8,6 6 3 27 15 S 1023,1 6 0 0,8
08.12.2017 00:00:00 7,0 4,0 6,2 4,4 8,6 12 6 35 19 WSW 1024,0 13 0 0,0
07.12.2017 23:00:00 7,0 3,6 6,4 4,4 8,6 13 7 34 18 WSW 1024,3 15 0 0,0
07.12.2017 22:00:00 6,7 3,8 3,8 4,4 8,6 11 6 18 10 WSW 1024,7 10 0 0,0
07.12.2017 21:00:00 6,6 3,6 3,5 4,4 8,6 8 4 23 12 W 1025,0 11 0 0,0
07.12.2017 20:00:00 6,8 3,4 3,6 4,3 8,6 11 6 23 13 WSW 1025,6 20 0 0,0
07.12.2017 19:00:00 6,8 3,8 4,9 4,3 8,6 11 6 27 14 WSW 1026,1 10 0 0,0
07.12.2017 18:00:00 6,5 3,6 2,7 4,2 8,6 11 6 26 14 WSW 1026,3 22 0 0,0
07.12.2017 17:00:00 7,4 3,3 5,8 4,1 8,6 10 6 25 14 WSW 1026,3 24 4 0,0
07.12.2017 16:00:00 8,9 3,3 10,0 4,1 8,6 5 3 22 12 SSE 1026,1 14 60 0,0
07.12.2017 15:00:00 10,3 2,9 12,6 4,1 8,6 9 5 16 9 SSW 1026,1 13 60 0,0
07.12.2017 14:00:00 8,3 2,9 10,0 4,1 8,6 4 2 15 8 - 1027,4 10 60 0,0
07.12.2017 13:00:00 6,3 2,6 7,9 4,1 8,7 11 6 18 10 E 1028,5 14 60 0,0
07.12.2017 12:00:00 4,3 1,0 5,1 4,2 8,6 13 7 19 10 E 1029,7 10 60 0,0
07.12.2017 11:00:00 2,6 0,2 2,0 4,2 8,6 14 8 24 13 E 1030,8 14 60 0,0
07.12.2017 10:00:00 0,5 -1,9 -1,5 4,3 8,7 13 7 22 12 E 1031,3 10 60 0,0
07.12.2017 09:00:00 -1,6 -3,0 -4,1 4,3 8,7 12 7 23 12 E 1031,8 14 30 0,0
07.12.2017 08:00:00 -2,7 -4,0 -4,1 4,3 8,6 15 8 26 14 E 1031,8 14 0 0,0
07.12.2017 07:00:00 -2,0 -2,8 -4,6 4,4 8,7 15 8 21 11 E 1031,9 10 0 0,0
07.12.2017 06:00:00 -3,2 -4,5 -4,3 4,4 8,7 15 8 21 11 E 1032,2 8 0 0,0
07.12.2017 05:00:00 -2,3 -3,7 -3,3 4,5 8,7 13 7 21 12 E 1032,4 10 0 0,0
07.12.2017 04:00:00 -2,3 -3,6 -3,6 4,5 8,7 15 8 23 13 E 1032,7 9 0 0,0
07.12.2017 03:00:00 -2,2 -3,0 -3,7 4,5 8,7 14 8 24 13 E 1033,3 6 0 0,0
07.12.2017 02:00:00 -2,5 -3,6 -3,2 4,6 8,7 17 9 26 14 E 1033,4 4,8 0 0,0
07.12.2017 01:00:00 -1,5 -2,6 -3,0 4,7 8,7 16 9 24 13 E 1033,6 6 0 0,0
07.12.2017 00:00:00 -2,0 -3,0 -3,1 4,7 8,7 18 10 26 14 E 1034,3 5 0 0,0
06.12.2017 23:00:00 -2,1 -3,1 - - - 16 9 24 13 E 1034,4 4,4 - 0,0
06.12.2017 22:00:00 -1,8 -2,5 -2,8 4,8 8,7 19 10 24 13 E 1034,4 3,7 0 0,0
06.12.2017 21:00:00 -1,9 -2,3 -2,7 4,8 8,7 17 9 24 13 E 1034,7 2,6 0 0,0
06.12.2017 20:00:00 -2,0 -2,4 -2,7 4,7 8,7 16 8 22 12 ESE 1034,7 1,4 0 0,0
06.12.2017 19:00:00 -1,8 -2,1 -2,1 4,8 8,7 16 9 22 12 E 1034,7 1,3 0 0,0
06.12.2017 18:00:00 -1,5 -1,8 -1,9 4,7 8,7 11 6 18 10 E 1034,9 0,2 0 0,0
06.12.2017 17:00:00 -1,5 -2,3 -2,0 4,7 8,7 14 8 16 9 E 1035,1 0,3 0 0,0
06.12.2017 16:00:00 -0,1 -1,4 0,5 4,7 8,8 11 6 16 8 E 1035,2 3,7 0 0,0
06.12.2017 15:00:00 0,2 -1,4 1,2 4,7 8,7 10 5 15 8 E 1035,5 5 0 0,0
06.12.2017 14:00:00 0,2 -1,6 1,5 4,7 8,7 8 5 12 6 E 1035,8 6 0 0,0
06.12.2017 13:00:00 0,1 -1,8 0,9 4,7 8,7 5 3 12 6 ENE 1036,6 6 0 0,0
06.12.2017 12:00:00 -0,4 -2,0 0,2 4,7 8,8 5 3 13 7 ENE 1037,3 8 0 0,0
06.12.2017 11:00:00 -1,0 -2,7 0,1 4,7 8,8 3 1 17 9 E 1038,0 1,5 0 0,0
06.12.2017 10:00:00 -0,8 -2,4 -0,5 4,7 8,7 9 5 15 8 ESE 1037,9 9 0 0,0
06.12.2017 09:00:00 -1,0 -2,4 -0,9 4,7 8,8 13 7 17 9 ESE 1037,8 10 0 0,0
06.12.2017 08:00:00 -0,9 -2,3 -0,9 4,7 8,8 7 4 13 7 ESE 1037,6 6 0 0,0
06.12.2017 07:00:00 -0,5 -2,1 -0,5 4,7 8,8 8 4 11 6 ESE 1037,4 8 0 0,0
06.12.2017 06:00:00 -0,3 -1,6 -0,3 4,7 8,8 5 3 10 6 E 1037,5 7 0 0,0
06.12.2017 05:00:00 -0,1 -1,4 -0,1 4,8 8,8 6 3 9 5 E 1037,8 5 0 0,0
06.12.2017 04:00:00 0,2 -1,6 0,1 4,8 8,8 4 2 6 4 ESE 1038,0 6 0 0,0
06.12.2017 03:00:00 0,4 -0,9 0,3 4,8 8,8 5 3 11 6 E 1038,3 7 0 0,0
06.12.2017 02:00:00 0,7 -0,6 0,7 4,8 8,8 5 3 14 8 ENE 1038,4 8 0 0,0
06.12.2017 01:00:00 0,8 -0,5 0,7 4,8 8,8 8 4 13 7 NNE 1038,6 8 0 0,0
06.12.2017 00:00:00 0,8 -0,5 0,7 4,8 8,8 8 5 15 8 NE 1038,9 7 0 0,0
05.12.2017 23:00:00 0,9 -0,3 0,8 4,8 8,8 9 5 15 8 NE 1039,1 8 0 0,0

tt = Température de l'air
td = dewpoint
tt 5cm = Température de l'air 5cm
tt -20cm = Température de l'air -20cm
tt -100cm = Température de l'air -100cm
ff = Vitesse du vent
fx = gusts
dd = Direction du vent
ppp = reduced air pressure
vv = visibility
sd = Ensoleillement
rr = Quantités de précipitations

stations d'obs. à proximité